Time,TemperatureF,DewpointF,PressureIn,WindDirection,WindDirectionDegrees,WindSpeedMPH,WindSpeedGustMPH,Humidity,HourlyPrecipIn,Conditions,Clouds,dailyrainin,SolarRadiationWatts/m^2,SoftwareType,DateUTC
2013-02-09 00:00:00,14.6,9.0,30.08,SSE,158,7.0,13.0,78,0.00,,,0.00,0,WeatherCatV1.13B119,2013-02-09 08:00:00,
2013-02-09 00:05:00,14.8,9.5,30.09,SSE,158,6.0,11.0,79,0.00,,,0.00,0,WeatherCatV1.13B119,2013-02-09 08:05:00,
2013-02-09 00:10:00,14.8,9.2,30.09,East,90,4.0,9.0,78,0.00,,,0.00,0,WeatherCatV1.13B119,2013-02-09 08:10:00,
2013-02-09 00:15:00,14.8,9.5,30.09,East,90,2.0,5.0,79,0.00,,,0.00,0,WeatherCatV1.13B119,2013-02-09 08:15:00,
2013-02-09 00:20:00,14.6,9.3,30.09,SE,135,2.0,4.0,79,0.00,,,0.00,0,WeatherCatV1.13B119,2013-02-09 08:20:00,
2013-02-09 00:25:00,14.6,9.3,30.09,ESE,112,3.0,6.0,79,0.00,,,0.00,0,WeatherCatV1.13B119,2013-02-09 08:25:00,
2013-02-09 00:30:00,14.6,9.3,30.09,SSE,158,3.0,6.0,79,0.00,,,0.00,0,WeatherCatV1.13B119,2013-02-09 08:30:00,
2013-02-09 00:35:00,14.4,8.8,30.09,East,90,2.0,6.0,78,0.00,,,0.00,0,WeatherCatV1.13B119,2013-02-09 08:35:00,
2013-02-09 00:40:00,14.3,9.0,30.09,SE,135,0.0,0.0,79,0.00,,,0.00,0,WeatherCatV1.13B119,2013-02-09 08:40:00,
2013-02-09 00:45:00,14.3,9.0,30.09,SE,135,4.0,6.0,79,0.00,,,0.00,0,WeatherCatV1.13B119,2013-02-09 08:45:00,
2013-02-09 00:50:00,14.3,9.0,30.11,ESE,112,2.0,4.0,79,0.00,,,0.00,0,WeatherCatV1.13B119,2013-02-09 08:50:00,
2013-02-09 00:55:00,14.3,9.3,30.11,SSE,158,8.0,11.0,80,0.00,,,0.00,0,WeatherCatV1.13B119,2013-02-09 08:55:00,
2013-02-09 01:00:00,14.3,9.0,30.11,SSE,158,8.0,12.0,79,0.00,,,0.00,0,WeatherCatV1.13B119,2013-02-09 09:00:00,
2013-02-09 01:05:00,14.1,8.8,30.10,SSE,158,0.0,1.0,79,0.00,,,0.00,0,WeatherCatV1.13B119,2013-02-09 09:05:00,
2013-02-09 01:10:00,14.3,9.0,30.10,SE,135,5.0,6.0,79,0.00,,,0.00,0,WeatherCatV1.13B119,2013-02-09 09:10:00,
2013-02-09 01:15:00,14.1,8.8,30.10,SE,135,5.0,7.0,79,0.00,,,0.00,0,WeatherCatV1.13B119,2013-02-09 09:15:00,
2013-02-09 01:20:00,14.4,9.1,30.08,ESE,112,2.0,6.0,79,0.00,,,0.00,0,WeatherCatV1.13B119,2013-02-09 09:20:00,
2013-02-09 01:25:00,14.4,9.1,30.08,SSE,158,8.0,12.0,79,0.00,,,0.00,0,WeatherCatV1.13B119,2013-02-09 09:25:00,
2013-02-09 01:30:00,14.4,9.1,30.08,SE,135,4.0,7.0,79,0.00,,,0.00,0,WeatherCatV1.13B119,2013-02-09 09:30:00,
2013-02-09 01:35:00,14.4,9.1,30.08,SE,135,4.0,6.0,79,0.00,,,0.00,0,WeatherCatV1.13B119,2013-02-09 09:35:00,
2013-02-09 01:40:00,14.3,9.0,30.08,ESE,112,0.0,2.0,79,0.00,,,0.00,0,WeatherCatV1.13B119,2013-02-09 09:40:00,
2013-02-09 01:45:00,14.1,8.8,30.09,East,90,2.0,3.0,79,0.00,,,0.00,0,WeatherCatV1.13B119,2013-02-09 09:45:00,
2013-02-09 01:50:00,14.1,8.8,30.09,SE,135,3.0,6.0,79,0.00,,,0.00,0,WeatherCatV1.13B119,2013-02-09 09:50:00,
2013-02-09 01:55:00,14.0,8.7,30.09,SE,135,0.0,0.0,79,0.00,,,0.00,0,WeatherCatV1.13B119,2013-02-09 09:55:00,
2013-02-09 02:00:00,14.0,9.0,30.10,SE,135,3.0,4.0,80,0.00,,,0.00,0,WeatherCatV1.13B119,2013-02-09 10:00:00,
2013-02-09 02:05:00,14.1,9.1,30.10,SE,135,0.0,0.0,80,0.00,,,0.00,0,WeatherCatV1.13B119,2013-02-09 10:05:00,
2013-02-09 02:10:00,14.3,9.3,30.10,SE,135,3.0,3.0,80,0.00,,,0.00,0,WeatherCatV1.13B119,2013-02-09 10:10:00,
2013-02-09 02:15:00,14.3,9.3,30.10,SE,135,4.0,6.0,80,0.00,,,0.00,0,WeatherCatV1.13B119,2013-02-09 10:15:00,
2013-02-09 02:20:00,14.3,9.3,30.10,SSE,158,4.0,5.0,80,0.00,,,0.00,0,WeatherCatV1.13B119,2013-02-09 10:20:00,
2013-02-09 02:25:00,14.4,9.4,30.10,SSE,158,0.0,0.0,80,0.00,,,0.00,0,WeatherCatV1.13B119,2013-02-09 10:25:00,
2013-02-09 02:30:00,14.4,9.1,30.09,SSE,158,0.0,0.0,79,0.00,,,0.00,0,WeatherCatV1.13B119,2013-02-09 10:30:00,
2013-02-09 02:35:00,14.6,9.6,30.09,SSE,158,1.0,2.0,80,0.00,,,0.00,0,WeatherCatV1.13B119,2013-02-09 10:35:00,
2013-02-09 02:40:00,14.8,9.5,30.09,SSE,158,0.0,0.0,79,0.00,,,0.00,0,WeatherCatV1.13B119,2013-02-09 10:40:00,
2013-02-09 02:45:00,14.6,9.0,30.09,SSE,158,0.0,0.0,78,0.00,,,0.00,0,WeatherCatV1.13B119,2013-02-09 10:45:00,
2013-02-09 02:50:00,14.6,9.3,30.08,SSE,158,0.0,0.0,79,0.00,,,0.00,0,WeatherCatV1.13B119,2013-02-09 10:50:00,
2013-02-09 02:55:00,14.4,9.1,30.08,SSE,158,0.0,0.0,79,0.00,,,0.00,0,WeatherCatV1.13B119,2013-02-09 10:55:00,
2013-02-09 03:00:00,14.6,9.6,30.08,SSE,158,0.0,0.0,80,0.00,,,0.00,0,WeatherCatV1.13B119,2013-02-09 11:00:00,
2013-02-09 03:05:00,14.4,9.1,30.08,SE,135,0.0,0.0,79,0.00,,,0.00,0,WeatherCatV1.13B119,2013-02-09 11:05:00,
2013-02-09 03:10:00,14.1,8.8,30.08,SE,135,1.0,3.0,79,0.00,,,0.00,0,WeatherCatV1.13B119,2013-02-09 11:10:00,
2013-02-09 03:15:00,14.3,9.3,30.10,SE,135,3.0,3.0,80,0.00,,,0.00,0,WeatherCatV1.13B119,2013-02-09 11:15:00,
2013-02-09 03:20:00,14.6,9.6,30.10,SE,135,3.0,4.0,80,0.00,,,0.00,0,WeatherCatV1.13B119,2013-02-09 11:20:00,
2013-02-09 03:25:00,14.8,9.8,30.10,SE,135,4.0,5.0,80,0.00,,,0.00,0,WeatherCatV1.13B119,2013-02-09 11:25:00,
2013-02-09 03:30:00,14.9,9.9,30.08,SE,135,3.0,4.0,80,0.00,,,0.00,0,WeatherCatV1.13B119,2013-02-09 11:30:00,
2013-02-09 03:35:00,15.1,9.8,30.08,ESE,112,2.0,3.0,79,0.00,,,0.00,0,WeatherCatV1.13B119,2013-02-09 11:35:00,
2013-02-09 03:40:00,15.1,9.8,30.08,ESE,112,0.0,0.0,79,0.00,,,0.00,0,WeatherCatV1.13B119,2013-02-09 11:40:00,
2013-02-09 03:45:00,15.1,10.1,30.08,ESE,112,3.0,4.0,80,0.00,,,0.00,0,WeatherCatV1.13B119,2013-02-09 11:45:00,
2013-02-09 03:50:00,15.1,9.8,30.08,ESE,112,3.0,4.0,79,0.00,,,0.00,0,WeatherCatV1.13B119,2013-02-09 11:50:00,
2013-02-09 03:55:00,14.9,9.6,30.08,ESE,112,0.0,0.0,79,0.00,,,0.00,0,WeatherCatV1.13B119,2013-02-09 11:55:00,
2013-02-09 04:00:00,14.9,9.6,30.08,ESE,112,0.0,0.0,79,0.00,,,0.00,0,WeatherCatV1.13B119,2013-02-09 12:00:00,
2013-02-09 04:05:00,14.8,9.5,30.08,ESE,112,0.0,0.0,79,0.00,,,0.00,0,WeatherCatV1.13B119,2013-02-09 12:05:00,
2013-02-09 04:10:00,14.6,9.3,30.08,ESE,112,0.0,0.0,79,0.00,,,0.00,0,WeatherCatV1.13B119,2013-02-09 12:10:00,
2013-02-09 04:15:00,14.4,9.1,30.11,ESE,112,0.0,0.0,79,0.00,,,0.00,0,WeatherCatV1.13B119,2013-02-09 12:15:00,
2013-02-09 04:20:00,14.3,9.0,30.11,ESE,112,0.0,0.0,79,0.00,,,0.00,0,WeatherCatV1.13B119,2013-02-09 12:20:00,
2013-02-09 04:25:00,14.1,8.8,30.11,ESE,112,0.0,0.0,79,0.00,,,0.00,0,WeatherCatV1.13B119,2013-02-09 12:25:00,
2013-02-09 04:30:00,14.0,9.0,30.11,ESE,112,0.0,0.0,80,0.00,,,0.00,0,WeatherCatV1.13B119,2013-02-09 12:30:00,
2013-02-09 04:35:00,13.8,8.8,30.12,ESE,112,0.0,0.0,80,0.00,,,0.00,0,WeatherCatV1.13B119,2013-02-09 12:35:00,
2013-02-09 04:40:00,13.6,8.6,30.12,ESE,112,0.0,0.0,80,0.00,,,0.00,0,WeatherCatV1.13B119,2013-02-09 12:40:00,
2013-02-09 04:45:00,13.6,8.6,30.12,ESE,112,0.0,0.0,80,0.00,,,0.00,0,WeatherCatV1.13B119,2013-02-09 12:45:00,
2013-02-09 04:50:00,13.5,8.5,30.12,ESE,112,0.0,0.0,80,0.00,,,0.00,0,WeatherCatV1.13B119,2013-02-09 12:50:00,
2013-02-09 04:55:00,13.5,8.5,30.12,ESE,112,0.0,0.0,80,0.00,,,0.00,0,WeatherCatV1.13B119,2013-02-09 12:55:00,
2013-02-09 05:00:00,13.5,8.8,30.12,ESE,112,0.0,0.0,81,0.00,,,0.00,0,WeatherCatV1.13B119,2013-02-09 13:00:00,
2013-02-09 05:05:00,13.5,8.8,30.12,East,90,1.0,2.0,81,0.00,,,0.00,0,WeatherCatV1.13B119,2013-02-09 13:05:00,
2013-02-09 05:10:00,13.6,8.9,30.12,East,90,0.0,0.0,81,0.00,,,0.00,0,WeatherCatV1.13B119,2013-02-09 13:10:00,
2013-02-09 05:15:00,13.6,8.9,30.12,East,90,0.0,0.0,81,0.00,,,0.00,0,WeatherCatV1.13B119,2013-02-09 13:15:00,
2013-02-09 05:20:00,13.8,9.1,30.12,NNE,22,0.0,0.0,81,0.00,,,0.00,0,WeatherCatV1.13B119,2013-02-09 13:20:00,
2013-02-09 05:25:00,14.0,9.3,30.12,NNE,22,0.0,1.0,81,0.00,,,0.00,0,WeatherCatV1.13B119,2013-02-09 13:25:00,
2013-02-09 05:30:00,14.1,9.4,30.12,NNE,22,0.0,0.0,81,0.00,,,0.00,0,WeatherCatV1.13B119,2013-02-09 13:30:00,
2013-02-09 05:35:00,14.1,9.4,30.12,NNE,22,0.0,0.0,81,0.00,,,0.00,0,WeatherCatV1.13B119,2013-02-09 13:35:00,
2013-02-09 05:40:00,14.1,9.4,30.12,NNE,22,0.0,0.0,81,0.00,,,0.00,0,WeatherCatV1.13B119,2013-02-09 13:40:00,
2013-02-09 05:45:00,14.1,9.1,30.12,NNE,22,0.0,0.0,80,0.00,,,0.00,0,WeatherCatV1.13B119,2013-02-09 13:45:00,
2013-02-09 05:50:00,14.0,9.0,30.12,NNE,22,0.0,0.0,80,0.00,,,0.00,0,WeatherCatV1.13B119,2013-02-09 13:50:00,
2013-02-09 05:55:00,14.0,9.0,30.12,NNE,22,1.0,3.0,80,0.00,,,0.00,0,WeatherCatV1.13B119,2013-02-09 13:55:00,
2013-02-09 06:00:00,14.0,9.0,30.12,NNE,22,0.0,0.0,80,0.00,,,0.00,0,WeatherCatV1.13B119,2013-02-09 14:00:00,
2013-02-09 06:05:00,14.0,9.0,30.12,NNE,22,0.0,0.0,80,0.00,,,0.00,0,WeatherCatV1.13B119,2013-02-09 14:05:00,
2013-02-09 06:10:00,14.0,9.0,30.12,NNE,22,0.0,0.0,80,0.00,,,0.00,0,WeatherCatV1.13B119,2013-02-09 14:10:00,
2013-02-09 06:15:00,14.0,9.0,30.12,NNE,22,0.0,0.0,80,0.00,,,0.00,0,WeatherCatV1.13B119,2013-02-09 14:15:00,
2013-02-09 06:20:00,14.0,9.0,30.13,NNE,22,0.0,0.0,80,0.00,,,0.00,0,WeatherCatV1.13B119,2013-02-09 14:20:00,
2013-02-09 06:25:00,14.0,9.3,30.13,NNE,22,0.0,0.0,81,0.00,,,0.00,0,WeatherCatV1.13B119,2013-02-09 14:25:00,
2013-02-09 06:30:00,14.0,9.3,30.13,NNE,22,0.0,0.0,81,0.00,,,0.00,0,WeatherCatV1.13B119,2013-02-09 14:30:00,
2013-02-09 06:35:00,13.8,9.1,30.13,NNE,22,0.0,0.0,81,0.00,,,0.00,0,WeatherCatV1.13B119,2013-02-09 14:35:00,
2013-02-09 06:40:00,13.8,9.1,30.13,NE,45,0.0,0.0,81,0.00,,,0.00,0,WeatherCatV1.13B119,2013-02-09 14:40:00,
2013-02-09 06:45:00,13.6,8.9,30.13,NE,45,0.0,1.0,81,0.00,,,0.00,0,WeatherCatV1.13B119,2013-02-09 14:45:00,
2013-02-09 06:50:00,13.3,8.6,30.12,ENE,68,1.0,4.0,81,0.00,,,0.00,0,WeatherCatV1.13B119,2013-02-09 14:50:00,
2013-02-09 06:55:00,13.1,8.7,30.12,East,90,2.0,6.0,82,0.00,,,0.00,0,WeatherCatV1.13B119,2013-02-09 14:55:00,
2013-02-09 07:00:00,12.6,8.2,30.14,ENE,68,2.0,5.0,82,0.00,,,0.00,5,WeatherCatV1.13B119,2013-02-09 15:00:00,
2013-02-09 07:05:00,12.4,8.2,30.14,East,90,2.0,4.0,83,0.00,,,0.00,7,WeatherCatV1.13B119,2013-02-09 15:05:00,
2013-02-09 07:10:00,12.4,8.2,30.14,East,90,1.0,3.0,83,0.00,,,0.00,9,WeatherCatV1.13B119,2013-02-09 15:10:00,
2013-02-09 07:15:00,12.4,8.5,30.16,East,90,1.0,3.0,84,0.00,,,0.00,12,WeatherCatV1.13B119,2013-02-09 15:15:00,
2013-02-09 07:20:00,12.4,8.5,30.16,East,90,2.0,4.0,84,0.00,,,0.00,16,WeatherCatV1.13B119,2013-02-09 15:20:00,
2013-02-09 07:25:00,12.6,8.7,30.16,ENE,68,3.0,6.0,84,0.00,,,0.00,25,WeatherCatV1.13B119,2013-02-09 15:25:00,
2013-02-09 07:30:00,12.8,9.2,30.17,East,90,1.0,3.0,85,0.00,,,0.00,40,WeatherCatV1.13B119,2013-02-09 15:30:00,
2013-02-09 07:35:00,13.1,9.4,30.17,ESE,112,0.0,1.0,85,0.00,,,0.00,51,WeatherCatV1.13B119,2013-02-09 15:35:00,
2013-02-09 07:40:00,13.6,9.9,30.17,ESE,112,1.0,2.0,85,0.00,,,0.00,62,WeatherCatV1.13B119,2013-02-09 15:40:00,
2013-02-09 07:45:00,14.0,10.3,30.17,ESE,112,2.0,4.0,85,0.00,,,0.00,70,WeatherCatV1.13B119,2013-02-09 15:45:00,
2013-02-09 07:50:00,14.3,10.6,30.16,East,90,3.0,5.0,85,0.00,,,0.00,81,WeatherCatV1.13B119,2013-02-09 15:50:00,
2013-02-09 07:55:00,14.8,11.1,30.16,East,90,1.0,3.0,85,0.00,,,0.00,95,WeatherCatV1.13B119,2013-02-09 15:55:00,
2013-02-09 08:00:00,15.4,11.4,30.16,ESE,112,2.0,4.0,84,0.00,,,0.00,107,WeatherCatV1.13B119,2013-02-09 16:00:00,
2013-02-09 08:05:00,15.7,12.3,30.17,East,90,2.0,4.0,86,0.00,,,0.00,121,WeatherCatV1.13B119,2013-02-09 16:05:00,
2013-02-09 08:10:00,16.1,11.9,30.17,ENE,68,2.0,6.0,83,0.00,,,0.00,137,WeatherCatV1.13B119,2013-02-09 16:10:00,
2013-02-09 08:15:00,16.2,11.7,30.17,SE,135,3.0,5.0,82,0.00,,,0.00,149,WeatherCatV1.13B119,2013-02-09 16:15:00,
2013-02-09 08:20:00,16.5,11.7,30.17,SE,135,2.0,6.0,81,0.00,,,0.00,161,WeatherCatV1.13B119,2013-02-09 16:20:00,
2013-02-09 08:25:00,16.5,11.1,30.17,East,90,4.0,7.0,79,0.00,,,0.00,172,WeatherCatV1.13B119,2013-02-09 16:25:00,
2013-02-09 08:30:00,16.7,11.3,30.17,ESE,112,4.0,6.0,79,0.00,,,0.00,183,WeatherCatV1.13B119,2013-02-09 16:30:00,
2013-02-09 08:35:00,17.0,11.9,30.16,East,90,4.0,10.0,80,0.00,,,0.00,200,WeatherCatV1.13B119,2013-02-09 16:35:00,
2013-02-09 08:40:00,17.5,12.1,30.16,ESE,112,3.0,6.0,79,0.00,,,0.00,200,WeatherCatV1.13B119,2013-02-09 16:40:00,
2013-02-09 08:45:00,17.7,12.0,30.16,ESE,112,3.0,6.0,78,0.00,,,0.00,229,WeatherCatV1.13B119,2013-02-09 16:45:00,
2013-02-09 08:50:00,18.0,12.0,30.17,SE,135,4.0,5.0,77,0.00,,,0.00,195,WeatherCatV1.13B119,2013-02-09 16:50:00,
2013-02-09 08:55:00,18.3,12.3,30.17,SE,135,4.0,6.0,77,0.00,,,0.00,283,WeatherCatV1.13B119,2013-02-09 16:55:00,
2013-02-09 09:00:00,18.4,12.1,30.17,SSE,158,5.0,7.0,76,0.00,,,0.00,86,WeatherCatV1.13B119,2013-02-09 17:00:00,
2013-02-09 09:05:00,18.6,12.3,30.18,ESE,112,3.0,5.0,76,0.00,,,0.00,302,WeatherCatV1.13B119,2013-02-09 17:05:00,
2013-02-09 09:10:00,18.8,12.5,30.18,ESE,112,4.0,6.0,76,0.00,,,0.00,327,WeatherCatV1.13B119,2013-02-09 17:10:00,
2013-02-09 09:15:00,19.1,12.5,30.18,SSE,158,6.0,11.0,75,0.00,,,0.00,339,WeatherCatV1.13B119,2013-02-09 17:15:00,
2013-02-09 09:20:00,19.2,12.6,30.18,SE,135,0.0,1.0,75,0.00,,,0.00,348,WeatherCatV1.13B119,2013-02-09 17:20:00,
2013-02-09 09:25:00,19.5,12.3,30.18,SE,135,2.0,4.0,73,0.00,,,0.00,353,WeatherCatV1.13B119,2013-02-09 17:25:00,
2013-02-09 09:30:00,19.7,12.2,30.18,SE,135,4.0,6.0,72,0.00,,,0.00,359,WeatherCatV1.13B119,2013-02-09 17:30:00,
2013-02-09 09:35:00,20.0,12.5,30.17,East,90,0.0,1.0,72,0.00,,,0.00,373,WeatherCatV1.13B119,2013-02-09 17:35:00,
2013-02-09 09:40:00,20.3,12.4,30.17,South,180,3.0,5.0,71,0.00,,,0.00,390,WeatherCatV1.13B119,2013-02-09 17:40:00,
2013-02-09 09:45:00,20.5,12.0,30.17,South,180,0.0,0.0,69,0.00,,,0.00,406,WeatherCatV1.13B119,2013-02-09 17:45:00,
2013-02-09 09:50:00,20.6,11.1,30.17,South,180,0.0,0.0,66,0.00,,,0.00,432,WeatherCatV1.13B119,2013-02-09 17:50:00,
2013-02-09 09:55:00,20.6,11.7,30.17,South,180,0.0,0.0,68,0.00,,,0.00,443,WeatherCatV1.13B119,2013-02-09 17:55:00,
2013-02-09 10:00:00,21.0,12.5,30.17,South,180,0.0,0.0,69,0.00,,,0.00,455,WeatherCatV1.13B119,2013-02-09 18:00:00,
2013-02-09 10:05:00,21.0,11.8,30.17,South,180,0.0,0.0,67,0.00,,,0.00,464,WeatherCatV1.13B119,2013-02-09 18:05:00,
2013-02-09 10:10:00,21.3,13.4,30.17,SSE,158,2.0,3.0,71,0.00,,,0.00,476,WeatherCatV1.13B119,2013-02-09 18:10:00,
2013-02-09 10:15:00,22.4,14.8,30.17,ESE,112,3.0,5.0,72,0.00,,,0.00,489,WeatherCatV1.13B119,2013-02-09 18:15:00,
2013-02-09 10:20:00,23.2,14.2,30.15,East,90,2.0,6.0,68,0.00,,,0.00,499,WeatherCatV1.13B119,2013-02-09 18:20:00,
2013-02-09 10:25:00,23.6,15.0,30.15,ESE,112,3.0,5.0,69,0.00,,,0.00,510,WeatherCatV1.13B119,2013-02-09 18:25:00,
2013-02-09 10:30:00,23.5,13.8,30.15,East,90,4.0,9.0,66,0.00,,,0.00,520,WeatherCatV1.13B119,2013-02-09 18:30:00,
2013-02-09 10:35:00,22.9,13.9,30.15,ESE,112,6.0,12.0,68,0.00,,,0.00,527,WeatherCatV1.13B119,2013-02-09 18:35:00,
2013-02-09 10:40:00,22.2,13.9,30.15,ESE,112,4.0,6.0,70,0.00,,,0.00,538,WeatherCatV1.13B119,2013-02-09 18:40:00,
2013-02-09 10:45:00,22.4,14.1,30.15,ESE,112,5.0,9.0,70,0.00,,,0.00,547,WeatherCatV1.13B119,2013-02-09 18:45:00,
2013-02-09 10:50:00,22.9,14.3,30.15,ESE,112,5.0,9.0,69,0.00,,,0.00,555,WeatherCatV1.13B119,2013-02-09 18:50:00,
2013-02-09 10:55:00,22.9,14.3,30.15,ESE,112,6.0,9.0,69,0.00,,,0.00,564,WeatherCatV1.13B119,2013-02-09 18:55:00,
2013-02-09 11:00:00,23.3,15.0,30.17,ESE,112,5.0,6.0,70,0.00,,,0.00,573,WeatherCatV1.13B119,2013-02-09 19:00:00,
2013-02-09 11:05:00,23.5,14.2,30.17,SSE,158,3.0,7.0,67,0.00,,,0.00,580,WeatherCatV1.13B119,2013-02-09 19:05:00,
2013-02-09 11:10:00,23.8,14.8,30.17,ESE,112,3.0,6.0,68,0.00,,,0.00,587,WeatherCatV1.13B119,2013-02-09 19:10:00,
2013-02-09 11:15:00,24.4,14.3,30.17,SE,135,6.0,7.0,65,0.00,,,0.00,594,WeatherCatV1.13B119,2013-02-09 19:15:00,
2013-02-09 11:20:00,25.0,13.8,30.17,ESE,112,7.0,11.0,62,0.00,,,0.00,599,WeatherCatV1.13B119,2013-02-09 19:20:00,
2013-02-09 11:25:00,25.0,14.9,30.17,ESE,112,4.0,6.0,65,0.00,,,0.00,605,WeatherCatV1.13B119,2013-02-09 19:25:00,
2013-02-09 11:30:00,25.4,15.0,30.17,ESE,112,0.0,2.0,64,0.00,,,0.00,613,WeatherCatV1.13B119,2013-02-09 19:30:00,
2013-02-09 11:35:00,26.0,12.9,30.15,SE,135,2.0,8.0,57,0.00,,,0.00,617,WeatherCatV1.13B119,2013-02-09 19:35:00,
2013-02-09 11:40:00,26.4,14.4,30.15,ESE,112,1.0,3.0,60,0.00,,,0.00,622,WeatherCatV1.13B119,2013-02-09 19:40:00,
2013-02-09 11:45:00,26.4,14.4,30.15,ESE,112,4.0,6.0,60,0.00,,,0.00,625,WeatherCatV1.13B119,2013-02-09 19:45:00,
2013-02-09 11:50:00,26.6,14.2,30.15,ESE,112,4.0,6.0,59,0.00,,,0.00,628,WeatherCatV1.13B119,2013-02-09 19:50:00,
2013-02-09 11:55:00,26.4,13.7,30.15,ESE,112,3.0,6.0,58,0.00,,,0.00,631,WeatherCatV1.13B119,2013-02-09 19:55:00,
2013-02-09 12:00:00,26.4,15.2,30.15,SE,135,4.0,6.0,62,0.00,,,0.00,631,WeatherCatV1.13B119,2013-02-09 20:00:00,
2013-02-09 12:05:00,26.1,13.8,30.15,ESE,112,4.0,8.0,59,0.00,,,0.00,635,WeatherCatV1.13B119,2013-02-09 20:05:00,
2013-02-09 12:10:00,26.3,13.6,30.15,ESE,112,5.0,9.0,58,0.00,,,0.00,638,WeatherCatV1.13B119,2013-02-09 20:10:00,
2013-02-09 12:15:00,26.3,13.9,30.15,SE,135,4.0,7.0,59,0.00,,,0.00,636,WeatherCatV1.13B119,2013-02-09 20:15:00,
2013-02-09 12:20:00,26.3,13.9,30.15,ESE,112,2.0,5.0,59,0.00,,,0.00,640,WeatherCatV1.13B119,2013-02-09 20:20:00,
2013-02-09 12:25:00,26.1,14.1,30.15,ESE,112,5.0,10.0,60,0.00,,,0.00,640,WeatherCatV1.13B119,2013-02-09 20:25:00,
2013-02-09 12:30:00,26.1,14.5,30.15,East,90,5.0,9.0,61,0.00,,,0.00,640,WeatherCatV1.13B119,2013-02-09 20:30:00,
2013-02-09 12:35:00,26.3,14.3,30.15,ESE,112,5.0,8.0,60,0.00,,,0.00,640,WeatherCatV1.13B119,2013-02-09 20:35:00,
2013-02-09 12:40:00,26.1,14.9,30.15,ESE,112,5.0,8.0,62,0.00,,,0.00,640,WeatherCatV1.13B119,2013-02-09 20:40:00,
2013-02-09 12:45:00,26.1,14.1,30.15,ESE,112,7.0,10.0,60,0.00,,,0.00,636,WeatherCatV1.13B119,2013-02-09 20:45:00,
2013-02-09 12:50:00,26.3,13.9,30.15,ESE,112,7.0,13.0,59,0.00,,,0.00,636,WeatherCatV1.13B119,2013-02-09 20:50:00,
2013-02-09 12:55:00,26.3,13.6,30.15,ESE,112,5.0,9.0,58,0.00,,,0.00,635,WeatherCatV1.13B119,2013-02-09 20:55:00,
2013-02-09 13:00:00,26.4,13.3,30.15,ESE,112,7.0,11.0,57,0.00,,,0.00,633,WeatherCatV1.13B119,2013-02-09 21:00:00,
2013-02-09 13:05:00,26.4,12.9,30.14,ESE,112,6.0,11.0,56,0.00,,,0.00,629,WeatherCatV1.13B119,2013-02-09 21:05:00,
2013-02-09 13:10:00,26.6,13.4,30.14,ESE,112,4.0,5.0,57,0.00,,,0.00,626,WeatherCatV1.13B119,2013-02-09 21:10:00,
2013-02-09 13:15:00,27.0,13.8,30.14,ESE,112,5.0,9.0,57,0.00,,,0.00,622,WeatherCatV1.13B119,2013-02-09 21:15:00,
2013-02-09 13:20:00,27.2,13.6,30.15,ESE,112,4.0,7.0,56,0.00,,,0.00,617,WeatherCatV1.13B119,2013-02-09 21:20:00,
2013-02-09 13:25:00,27.8,13.4,30.15,SSE,158,4.0,6.0,54,0.00,,,0.00,613,WeatherCatV1.13B119,2013-02-09 21:25:00,
2013-02-09 13:30:00,28.1,13.2,30.15,ESE,112,4.0,10.0,53,0.00,,,0.00,608,WeatherCatV1.13B119,2013-02-09 21:30:00,
2013-02-09 13:35:00,27.9,13.4,30.13,SE,135,4.0,10.0,54,0.00,,,0.00,601,WeatherCatV1.13B119,2013-02-09 21:35:00,
2013-02-09 13:40:00,28.2,13.3,30.13,SSE,158,4.0,8.0,53,0.00,,,0.00,594,WeatherCatV1.13B119,2013-02-09 21:40:00,
2013-02-09 13:45:00,28.4,12.6,30.13,ESE,112,6.0,9.0,51,0.00,,,0.00,587,WeatherCatV1.13B119,2013-02-09 21:45:00,
2013-02-09 13:50:00,28.2,12.4,30.13,SSE,158,3.0,9.0,51,0.00,,,0.00,580,WeatherCatV1.13B119,2013-02-09 21:50:00,
2013-02-09 13:55:00,28.4,12.6,30.13,ESE,112,3.0,6.0,51,0.00,,,0.00,573,WeatherCatV1.13B119,2013-02-09 21:55:00,
2013-02-09 14:00:00,28.2,13.3,30.14,SSE,158,2.0,6.0,53,0.00,,,0.00,564,WeatherCatV1.13B119,2013-02-09 22:00:00,
2013-02-09 14:05:00,28.2,12.0,30.14,SSE,158,5.0,9.0,50,0.00,,,0.00,555,WeatherCatV1.13B119,2013-02-09 22:05:00,
2013-02-09 14:10:00,28.1,11.9,30.14,SE,135,1.0,4.0,50,0.00,,,0.00,546,WeatherCatV1.13B119,2013-02-09 22:10:00,
2013-02-09 14:15:00,28.5,12.3,30.14,SE,135,1.0,4.0,50,0.00,,,0.00,538,WeatherCatV1.13B119,2013-02-09 22:15:00,
2013-02-09 14:20:00,28.5,11.3,30.14,East,90,3.0,6.0,48,0.00,,,0.00,527,WeatherCatV1.13B119,2013-02-09 22:20:00,
2013-02-09 14:25:00,28.4,11.7,30.14,ESE,112,4.0,9.0,49,0.00,,,0.00,522,WeatherCatV1.13B119,2013-02-09 22:25:00,
2013-02-09 14:30:00,28.4,11.7,30.14,ESE,112,3.0,6.0,49,0.00,,,0.00,510,WeatherCatV1.13B119,2013-02-09 22:30:00,
2013-02-09 14:35:00,28.2,10.6,30.15,SSE,158,7.0,12.0,47,0.00,,,0.00,471,WeatherCatV1.13B119,2013-02-09 22:35:00,
2013-02-09 14:40:00,27.9,10.8,30.15,ESE,112,3.0,6.0,48,0.00,,,0.00,79,WeatherCatV1.13B119,2013-02-09 22:40:00,
2013-02-09 14:45:00,27.6,10.5,30.15,ESE,112,4.0,10.0,48,0.00,,,0.00,40,WeatherCatV1.13B119,2013-02-09 22:45:00,
2013-02-09 14:50:00,27.3,11.1,30.14,SSE,158,4.0,5.0,50,0.00,,,0.00,32,WeatherCatV1.13B119,2013-02-09 22:50:00,
2013-02-09 14:55:00,27.0,9.9,30.14,ESE,112,5.0,6.0,48,0.00,,,0.00,30,WeatherCatV1.13B119,2013-02-09 22:55:00,
2013-02-09 15:00:00,26.4,9.9,30.14,ESE,112,6.0,8.0,49,0.00,,,0.00,30,WeatherCatV1.13B119,2013-02-09 23:00:00,
2013-02-09 15:05:00,26.3,9.3,30.16,SE,135,6.0,10.0,48,0.00,,,0.00,62,WeatherCatV1.13B119,2013-02-09 23:05:00,
2013-02-09 15:10:00,25.8,9.3,30.16,SE,135,4.0,5.0,49,0.00,,,0.00,87,WeatherCatV1.13B119,2013-02-09 23:10:00,
2013-02-09 15:15:00,25.7,9.7,30.16,ESE,112,6.0,10.0,50,0.00,,,0.00,32,WeatherCatV1.13B119,2013-02-09 23:15:00,
2013-02-09 15:20:00,25.6,10.0,30.16,SE,135,6.0,9.0,51,0.00,,,0.00,33,WeatherCatV1.13B119,2013-02-09 23:20:00,
2013-02-09 15:25:00,25.6,10.5,30.16,SE,135,3.0,6.0,52,0.00,,,0.00,77,WeatherCatV1.13B119,2013-02-09 23:25:00,
2013-02-09 15:30:00,25.6,10.0,30.16,SE,135,4.0,6.0,51,0.00,,,0.00,32,WeatherCatV1.13B119,2013-02-09 23:30:00,
2013-02-09 15:35:00,25.6,10.0,30.17,SSE,158,4.0,7.0,51,0.00,,,0.00,32,WeatherCatV1.13B119,2013-02-09 23:35:00,
2013-02-09 15:40:00,25.4,10.3,30.17,ESE,112,2.0,5.0,52,0.00,,,0.00,67,WeatherCatV1.13B119,2013-02-09 23:40:00,
2013-02-09 15:45:00,25.3,10.2,30.17,ESE,112,3.0,5.0,52,0.00,,,0.00,26,WeatherCatV1.13B119,2013-02-09 23:45:00,
2013-02-09 15:50:00,25.1,10.4,30.17,SE,135,5.0,7.0,53,0.00,,,0.00,33,WeatherCatV1.13B119,2013-02-09 23:50:00,
2013-02-09 15:55:00,25.1,10.0,30.17,ESE,112,4.0,6.0,52,0.00,,,0.00,26,WeatherCatV1.13B119,2013-02-09 23:55:00,
2013-02-09 16:00:00,25.0,9.9,30.17,SE,135,6.0,7.0,52,0.00,,,0.00,30,WeatherCatV1.13B119,2013-02-10 00:00:00,
2013-02-09 16:05:00,25.0,9.9,30.17,SE,135,5.0,9.0,52,0.00,,,0.00,25,WeatherCatV1.13B119,2013-02-10 00:05:00,
2013-02-09 16:10:00,24.8,9.3,30.17,SSE,158,5.0,7.0,51,0.00,,,0.00,26,WeatherCatV1.13B119,2013-02-10 00:10:00,
2013-02-09 16:15:00,24.8,9.3,30.17,ESE,112,5.0,6.0,51,0.00,,,0.00,28,WeatherCatV1.13B119,2013-02-10 00:15:00,
2013-02-09 16:20:00,24.8,9.3,30.20,SE,135,3.0,6.0,51,0.00,,,0.00,106,WeatherCatV1.13B119,2013-02-10 00:20:00,
2013-02-09 16:25:00,25.0,9.0,30.20,ESE,112,4.0,5.0,50,0.00,,,0.00,149,WeatherCatV1.13B119,2013-02-10 00:25:00,
2013-02-09 16:30:00,24.8,8.8,30.20,ESE,112,2.0,6.0,50,0.00,,,0.00,179,WeatherCatV1.13B119,2013-02-10 00:30:00,
2013-02-09 16:35:00,24.8,8.8,30.21,SE,135,4.0,6.0,50,0.00,,,0.00,163,WeatherCatV1.13B119,2013-02-10 00:35:00,
2013-02-09 16:40:00,24.8,8.4,30.21,East,90,2.0,4.0,49,0.00,,,0.00,137,WeatherCatV1.13B119,2013-02-10 00:40:00,
2013-02-09 16:45:00,24.7,8.3,30.21,SSE,158,4.0,5.0,49,0.00,,,0.00,70,WeatherCatV1.13B119,2013-02-10 00:45:00,
2013-02-09 16:50:00,24.5,8.1,30.21,SSE,158,5.0,7.0,49,0.00,,,0.00,21,WeatherCatV1.13B119,2013-02-10 00:50:00,
2013-02-09 16:55:00,24.4,8.5,30.21,ESE,112,3.0,6.0,50,0.00,,,0.00,18,WeatherCatV1.13B119,2013-02-10 00:55:00,
2013-02-09 17:00:00,24.1,8.6,30.21,ESE,112,3.0,5.0,51,0.00,,,0.00,18,WeatherCatV1.13B119,2013-02-10 01:00:00,
2013-02-09 17:05:00,23.9,8.4,30.20,ESE,112,0.0,2.0,51,0.00,,,0.00,18,WeatherCatV1.13B119,2013-02-10 01:05:00,
2013-02-09 17:10:00,23.8,8.3,30.20,ESE,112,3.0,5.0,51,0.00,,,0.00,14,WeatherCatV1.13B119,2013-02-10 01:10:00,
2013-02-09 17:15:00,23.8,8.3,30.20,ESE,112,0.0,2.0,51,0.00,,,0.00,14,WeatherCatV1.13B119,2013-02-10 01:15:00,
2013-02-09 17:20:00,23.5,8.1,30.20,ESE,112,1.0,3.0,51,0.00,,,0.00,11,WeatherCatV1.13B119,2013-02-10 01:20:00,
2013-02-09 17:25:00,23.5,8.5,30.20,ESE,112,1.0,2.0,52,0.00,,,0.00,7,WeatherCatV1.13B119,2013-02-10 01:25:00,
2013-02-09 17:30:00,23.3,8.3,30.20,ESE,112,0.0,2.0,52,0.00,,,0.00,5,WeatherCatV1.13B119,2013-02-10 01:30:00,
2013-02-09 17:35:00,23.3,8.7,30.21,ESE,112,2.0,3.0,53,0.00,,,0.00,0,WeatherCatV1.13B119,2013-02-10 01:35:00,
2013-02-09 17:40:00,23.2,8.2,30.21,ESE,112,0.0,1.0,52,0.00,,,0.00,0,WeatherCatV1.13B119,2013-02-10 01:40:00,
2013-02-09 17:45:00,22.9,8.3,30.21,ESE,112,2.0,3.0,53,0.00,,,0.00,0,WeatherCatV1.13B119,2013-02-10 01:45:00,
2013-02-09 17:50:00,22.5,8.4,30.21,ESE,112,3.0,5.0,54,0.00,,,0.00,0,WeatherCatV1.13B119,2013-02-10 01:50:00,
2013-02-09 17:55:00,22.2,8.5,30.21,ESE,112,4.0,5.0,55,0.00,,,0.00,0,WeatherCatV1.13B119,2013-02-10 01:55:00,
2013-02-09 18:00:00,22.1,8.0,30.21,ESE,112,3.0,4.0,54,0.00,,,0.00,0,WeatherCatV1.13B119,2013-02-10 02:00:00,
2013-02-09 18:05:00,22.2,8.5,30.21,ESE,112,0.0,2.0,55,0.00,,,0.00,0,WeatherCatV1.13B119,2013-02-10 02:05:00,
2013-02-09 18:10:00,22.2,8.9,30.21,ESE,112,3.0,4.0,56,0.00,,,0.00,0,WeatherCatV1.13B119,2013-02-10 02:10:00,
2013-02-09 18:15:00,22.4,8.7,30.21,ESE,112,3.0,4.0,55,0.00,,,0.00,0,WeatherCatV1.13B119,2013-02-10 02:15:00,
2013-02-09 18:20:00,21.9,8.2,30.23,ESE,112,2.0,3.0,55,0.00,,,0.00,0,WeatherCatV1.13B119,2013-02-10 02:20:00,
2013-02-09 18:25:00,22.1,8.8,30.23,ESE,112,2.0,3.0,56,0.00,,,0.00,0,WeatherCatV1.13B119,2013-02-10 02:25:00,
2013-02-09 18:30:00,21.9,9.0,30.23,ESE,112,2.0,3.0,57,0.00,,,0.00,0,WeatherCatV1.13B119,2013-02-10 02:30:00,
2013-02-09 18:35:00,21.9,9.0,30.24,ESE,112,1.0,3.0,57,0.00,,,0.00,0,WeatherCatV1.13B119,2013-02-10 02:35:00,
2013-02-09 18:40:00,21.6,8.7,30.24,ESE,112,0.0,1.0,57,0.00,,,0.00,0,WeatherCatV1.13B119,2013-02-10 02:40:00,
2013-02-09 18:45:00,21.4,8.6,30.24,ESE,112,0.0,0.0,57,0.00,,,0.00,0,WeatherCatV1.13B119,2013-02-10 02:45:00,
2013-02-09 18:50:00,21.0,8.6,30.25,ESE,112,1.0,2.0,58,0.00,,,0.00,0,WeatherCatV1.13B119,2013-02-10 02:50:00,
2013-02-09 18:55:00,21.0,8.9,30.25,ESE,112,0.0,0.0,59,0.00,,,0.00,0,WeatherCatV1.13B119,2013-02-10 02:55:00,
2013-02-09 19:00:00,21.3,8.1,30.25,ESE,112,0.0,2.0,56,0.00,,,0.00,0,WeatherCatV1.13B119,2013-02-10 03:00:00,
2013-02-09 19:05:00,21.1,7.9,30.25,ESE,112,0.0,0.0,56,0.00,,,0.00,0,WeatherCatV1.13B119,2013-02-10 03:05:00,
2013-02-09 19:10:00,21.0,7.8,30.25,East,90,2.0,3.0,56,0.00,,,0.00,0,WeatherCatV1.13B119,2013-02-10 03:10:00,
2013-02-09 19:15:00,21.1,8.3,30.25,East,90,1.0,2.0,57,0.00,,,0.00,0,WeatherCatV1.13B119,2013-02-10 03:15:00,
2013-02-09 19:20:00,21.3,8.5,30.25,East,90,0.0,1.0,57,0.00,,,0.00,0,WeatherCatV1.13B119,2013-02-10 03:20:00,
2013-02-09 19:25:00,21.4,8.6,30.25,East,90,0.0,0.0,57,0.00,,,0.00,0,WeatherCatV1.13B119,2013-02-10 03:25:00,
2013-02-09 19:30:00,21.6,8.0,30.25,East,90,0.0,1.0,55,0.00,,,0.00,0,WeatherCatV1.13B119,2013-02-10 03:30:00,
2013-02-09 19:35:00,21.6,7.6,30.25,East,90,0.0,0.0,54,0.00,,,0.00,0,WeatherCatV1.13B119,2013-02-10 03:35:00,
2013-02-09 19:40:00,21.4,6.5,30.25,East,90,2.0,3.0,52,0.00,,,0.00,0,WeatherCatV1.13B119,2013-02-10 03:40:00,
2013-02-09 19:45:00,21.4,6.5,30.25,East,90,0.0,2.0,52,0.00,,,0.00,0,WeatherCatV1.13B119,2013-02-10 03:45:00,
2013-02-09 19:50:00,21.3,6.4,30.25,East,90,0.0,0.0,52,0.00,,,0.00,0,WeatherCatV1.13B119,2013-02-10 03:50:00,
2013-02-09 19:55:00,21.3,6.9,30.25,East,90,0.0,0.0,53,0.00,,,0.00,0,WeatherCatV1.13B119,2013-02-10 03:55:00,
2013-02-09 20:00:00,21.0,6.6,30.25,ESE,112,3.0,5.0,53,0.00,,,0.00,0,WeatherCatV1.13B119,2013-02-10 04:00:00,
2013-02-09 20:05:00,21.0,6.6,30.25,ESE,112,1.0,3.0,53,0.00,,,0.00,0,WeatherCatV1.13B119,2013-02-10 04:05:00,
2013-02-09 20:10:00,20.8,7.6,30.25,ESE,112,0.0,1.0,56,0.00,,,0.00,0,WeatherCatV1.13B119,2013-02-10 04:10:00,
2013-02-09 20:15:00,21.0,7.8,30.25,ESE,112,2.0,3.0,56,0.00,,,0.00,0,WeatherCatV1.13B119,2013-02-10 04:15:00,
2013-02-09 20:20:00,21.0,7.8,30.23,SE,135,5.0,6.0,56,0.00,,,0.00,0,WeatherCatV1.13B119,2013-02-10 04:20:00,
2013-02-09 20:25:00,20.6,7.8,30.23,East,90,4.0,7.0,57,0.00,,,0.00,0,WeatherCatV1.13B119,2013-02-10 04:25:00,
2013-02-09 20:30:00,20.6,8.2,30.23,SE,135,2.0,3.0,58,0.00,,,0.00,0,WeatherCatV1.13B119,2013-02-10 04:30:00,
2013-02-09 20:35:00,20.5,8.5,30.24,SE,135,4.0,6.0,59,0.00,,,0.00,0,WeatherCatV1.13B119,2013-02-10 04:35:00,
2013-02-09 20:40:00,20.5,8.5,30.24,ESE,112,2.0,4.0,59,0.00,,,0.00,0,WeatherCatV1.13B119,2013-02-10 04:40:00,
2013-02-09 20:45:00,20.5,8.5,30.24,SE,135,8.0,11.0,59,0.00,,,0.00,0,WeatherCatV1.13B119,2013-02-10 04:45:00,
2013-02-09 20:50:00,20.5,8.9,30.25,ESE,112,6.0,7.0,60,0.00,,,0.00,0,WeatherCatV1.13B119,2013-02-10 04:50:00,
2013-02-09 20:55:00,20.6,9.3,30.25,SE,135,7.0,10.0,61,0.00,,,0.00,0,WeatherCatV1.13B119,2013-02-10 04:55:00,
2013-02-09 21:00:00,20.5,9.2,30.25,ESE,112,4.0,7.0,61,0.00,,,0.00,0,WeatherCatV1.13B119,2013-02-10 05:00:00,
2013-02-09 21:05:00,20.5,9.9,30.25,ESE,112,7.0,10.0,63,0.00,,,0.00,0,WeatherCatV1.13B119,2013-02-10 05:05:00,
2013-02-09 21:10:00,20.8,10.2,30.25,East,90,3.0,10.0,63,0.00,,,0.00,0,WeatherCatV1.13B119,2013-02-10 05:10:00,
2013-02-09 21:15:00,20.8,10.6,30.25,East,90,4.0,8.0,64,0.00,,,0.00,0,WeatherCatV1.13B119,2013-02-10 05:15:00,
2013-02-09 21:20:00,20.8,10.6,30.21,East,90,1.0,4.0,64,0.00,,,0.00,0,WeatherCatV1.13B119,2013-02-10 05:20:00,
2013-02-09 21:25:00,20.6,10.7,30.21,East,90,4.0,7.0,65,0.00,,,0.00,0,WeatherCatV1.13B119,2013-02-10 05:25:00,
2013-02-09 21:30:00,20.8,10.9,30.21,ESE,112,5.0,12.0,65,0.00,,,0.00,0,WeatherCatV1.13B119,2013-02-10 05:30:00,
2013-02-09 21:35:00,20.8,11.3,30.22,SSE,158,8.0,13.0,66,0.00,,,0.00,0,WeatherCatV1.13B119,2013-02-10 05:35:00,
2013-02-09 21:40:00,21.1,11.2,30.22,ESE,112,3.0,9.0,65,0.00,,,0.00,0,WeatherCatV1.13B119,2013-02-10 05:40:00,
2013-02-09 21:45:00,21.0,11.4,30.22,ESE,112,4.0,7.0,66,0.00,,,0.00,0,WeatherCatV1.13B119,2013-02-10 05:45:00,
2013-02-09 21:50:00,21.0,11.4,30.21,SE,135,11.0,14.0,66,0.00,,,0.00,0,WeatherCatV1.13B119,2013-02-10 05:50:00,
2013-02-09 21:55:00,21.1,11.6,30.21,ESE,112,7.0,10.0,66,0.00,,,0.00,0,WeatherCatV1.13B119,2013-02-10 05:55:00,
2013-02-09 22:00:00,20.8,11.6,30.21,East,90,6.0,13.0,67,0.00,,,0.00,0,WeatherCatV1.13B119,2013-02-10 06:00:00,
2013-02-09 22:05:00,20.6,11.4,30.20,ESE,112,10.0,14.0,67,0.00,,,0.00,0,WeatherCatV1.13B119,2013-02-10 06:05:00,
2013-02-09 22:10:00,20.8,11.6,30.20,SE,135,8.0,11.0,67,0.00,,,0.00,0,WeatherCatV1.13B119,2013-02-10 06:10:00,
2013-02-09 22:15:00,20.8,11.9,30.20,ESE,112,5.0,10.0,68,0.00,,,0.00,0,WeatherCatV1.13B119,2013-02-10 06:15:00,
2013-02-09 22:20:00,20.5,11.6,30.19,ESE,112,6.0,10.0,68,0.00,,,0.00,0,WeatherCatV1.13B119,2013-02-10 06:20:00,
2013-02-09 22:25:00,20.5,11.6,30.19,ESE,112,9.0,13.0,68,0.00,,,0.00,0,WeatherCatV1.13B119,2013-02-10 06:25:00,
2013-02-09 22:30:00,20.6,12.1,30.19,SE,135,6.0,7.0,69,0.00,,,0.00,0,WeatherCatV1.13B119,2013-02-10 06:30:00,
2013-02-09 22:35:00,21.0,12.1,30.19,ESE,112,6.0,8.0,68,0.00,,,0.00,0,WeatherCatV1.13B119,2013-02-10 06:35:00,
2013-02-09 22:40:00,21.0,12.1,30.19,ESE,112,8.0,11.0,68,0.00,,,0.00,0,WeatherCatV1.13B119,2013-02-10 06:40:00,
2013-02-09 22:45:00,20.8,12.3,30.19,ESE,112,7.0,13.0,69,0.00,,,0.00,0,WeatherCatV1.13B119,2013-02-10 06:45:00,
2013-02-09 22:50:00,21.0,12.5,30.18,ESE,112,4.0,9.0,69,0.00,,,0.00,0,WeatherCatV1.13B119,2013-02-10 06:50:00,
2013-02-09 22:55:00,21.0,12.5,30.18,ESE,112,3.0,9.0,69,0.00,,,0.00,0,WeatherCatV1.13B119,2013-02-10 06:55:00,
2013-02-09 23:00:00,21.0,12.5,30.18,SSE,158,1.0,5.0,69,0.00,,,0.00,0,WeatherCatV1.13B119,2013-02-10 07:00:00,
2013-02-09 23:05:00,21.0,12.5,30.19,ENE,68,5.0,8.0,69,0.00,,,0.00,0,WeatherCatV1.13B119,2013-02-10 07:05:00,
2013-02-09 23:10:00,21.1,12.5,30.19,ESE,112,5.0,6.0,69,0.00,,,0.00,0,WeatherCatV1.13B119,2013-02-10 07:10:00,
2013-02-09 23:15:00,21.1,12.5,30.19,ESE,112,2.0,4.0,69,0.00,,,0.00,0,WeatherCatV1.13B119,2013-02-10 07:15:00,
2013-02-09 23:20:00,21.1,12.2,30.18,SE,135,0.0,0.0,68,0.00,,,0.00,0,WeatherCatV1.13B119,2013-02-10 07:20:00,
2013-02-09 23:25:00,21.0,12.5,30.18,SSE,158,2.0,5.0,69,0.00,,,0.00,0,WeatherCatV1.13B119,2013-02-10 07:25:00,
2013-02-09 23:30:00,20.8,12.3,30.18,ESE,112,1.0,3.0,69,0.00,,,0.00,0,WeatherCatV1.13B119,2013-02-10 07:30:00,
2013-02-09 23:35:00,20.8,12.6,30.18,SE,135,1.0,3.0,70,0.00,,,0.00,0,WeatherCatV1.13B119,2013-02-10 07:35:00,
2013-02-09 23:40:00,20.6,12.4,30.18,SE,135,1.0,4.0,70,0.00,,,0.00,0,WeatherCatV1.13B119,2013-02-10 07:40:00,
2013-02-09 23:45:00,20.6,12.4,30.18,SE,135,2.0,3.0,70,0.00,,,0.00,0,WeatherCatV1.13B119,2013-02-10 07:45:00,
2013-02-09 23:50:00,20.6,12.1,30.18,SE,135,1.0,3.0,69,0.00,,,0.00,0,WeatherCatV1.13B119,2013-02-10 07:50:00,
2013-02-09 23:55:00,20.5,12.3,30.18,SE,135,0.0,0.0,70,0.00,,,0.00,0,WeatherCatV1.13B119,2013-02-10 07:55:00,